Tracking 19199 objects as of 25-Jun-2018
HD Live streaming from Space Station
objects crossing your sky now

FENGYUN 1C DEB

Track FENGYUN 1C DEB now!
10-day predictions


NORAD ID: 33632
Int'l Code: 1999-025DDR
Perigee: 695.6 km
Apogee: 775.8 km
Inclination: 99.0 °
Period: 99.4 minutes
Semi major axis: 7106 km
RCS: 0.0035 m2 (small)
Launch date: May 10, 1999
Source: People's Republic of China (PRC)
Launch site: Taiyaun Space Center, China (TSC)

Note: This is SATELLITE DEBRIS
aabbcc
Your satellite tracking list
Your tracking list is empty




NASA's NSSDC Master Catalog

Two Line Element Set (TLE):
1 33632U 99025DDR 18173.90597486 +.00001299 +00000-0 +34858-3 0  9992
2 33632 099.0469 060.9053 0056422 047.7480 312.8477 14.49099249533990
Source of the keplerian elements: AFSPC